Home > Weather > Oxnard > Past weeks

Flag for USA Past Weather in Oxnard, California, USA — Yesterday and Last 2 Weeks

Now
72 °F

Sunny.


Feels Like: 75 °F
Forecast: 58 / 72 °F
Wind: 6 mph from West

Location: Oxnard Airport

Current Time: Jun 25, 2016 at 2:28:30 PM

Latest Report: Jun 25, 2016 at 1:51 PM


Visibility: 10 mi

Pressure: 29.86 "Hg

Humidity: 66%

Dew Point: 60 °F

Location of OxnardLocation

Past Weather in Oxnard — Graph

°F

Oxnard Temperature Yesterday

Maximum temperature yesterday: 68 °F (at 12:51 PM)
Minimum temperature yesterday: 60 °F (at 1:02 AM)
Average temperature yesterday: 64 °F

High & Low Weather Summary for the Past Weeks

 TemperatureHumidityPressure
High77 °F (Jun 20, 11:51 AM)100% (Jun 22, 12:51 AM)30.12 "Hg (Jun 22, 12:51 AM)
Low54 °F (Jun 16, 5:51 AM)50% (Jun 20, 11:51 AM)29.84 "Hg (Jun 20, 5:51 PM)
Average64 °F78%29.96 "Hg
* Reported Jun 10 12:51 PM — Jun 25 12:51 PM, Oxnard, Weather by CustomWeather, © 2016

Note: Actual official high and low records may vary slightly from our data, if they occured in-between our weather recording intervals... More about our weather records

Advertising

Oxnard Weather History for the Previous 24 Hours

Scroll right to see more
 ConditionsComfort  
Time TempWeatherWind HumidityBarometerVisibility
12:51 PM
Sat, Jun 25
70 °FScattered clouds.7 mph73%29.88 "Hg8 mi
11:51 AM68 °FOvercast.9 mph78%29.88 "Hg7 mi
10:51 AM67 °FOvercast.7 mph81%29.88 "Hg6 mi
9:51 AM66 °FOvercast.6 mph81%29.88 "Hg6 mi
8:51 AM65 °FOvercast.3 mph85%29.88 "Hg6 mi
7:51 AM64 °FLow clouds.3 mph87%29.87 "Hg7 mi
6:51 AM64 °FLow clouds.3 mph84%29.87 "Hg6 mi
5:51 AM63 °FLow clouds.No wind84%29.86 "Hg9 mi
4:51 AM61 °FLow clouds.No wind81%29.85 "Hg10 mi
3:51 AM60 °FLow clouds.No wind86%29.85 "Hg8 mi
2:51 AM60 °FPassing clouds.No wind86%29.86 "Hg8 mi
1:51 AM62 °FPassing clouds.No wind86%29.86 "Hg8 mi
12:51 AM62 °FClear.No wind86%29.87 "Hg8 mi
11:51 PM
Fri, Jun 24
62 °FClear.No wind80%29.88 "Hg9 mi
10:51 PM63 °FClear.No wind84%29.89 "Hg9 mi
9:51 PM63 °FClear.No wind78%29.87 "Hg9 mi
8:51 PM62 °FSunny.3 mph80%29.86 "Hg9 mi
7:51 PM64 °FSunny.3 mph75%29.86 "Hg9 mi
6:51 PM66 °FSunny.6 mph73%29.85 "Hg10 mi
5:51 PM67 °FSunny.8 mph73%29.87 "Hg10 mi
4:51 PM67 °FSunny.8 mph71%29.88 "Hg10 mi
3:51 PM67 °FSunny.12 mph68%29.90 "Hg10 mi
2:51 PM68 °FSunny.8 mph70%29.91 "Hg10 mi
Weather by CustomWeather, © 2016

See weather overviewHow to use our weather pages